Regional Weather Roundup
Issued by NWS

Home | Current Version | Previous Version | Graphics & Text | Print | Product List | Glossary On
Versions: 1 2 3 4 5 6 7 8 9 10 11 12 13 14 15 16 17 18 19 20 21 22 23 24 25 26 27 28 29 30 31 32 33 34 35 36 37 38 39 40 41 42 43 44 45 46 47 48 49 50
000
ASUS43 KMPX 270001
RWRMN
WEATHER ROUNDUP FOR MINNESOTA
NATIONAL WEATHER SERVICE TWIN CITIES/CHANHASSEN MN
700 PM CDT THU MAY 26 2016


NOTE: "FAIR" INDICATES FEW OR NO CLOUDS BELOW 12,000 FEET WITH NO
SIGNIFICANT WEATHER AND/OR OBSTRUCTIONS TO VISIBILITY. N/A MEANS
CURRENT SKY AND/OR WEATHER CONDITIONS ARE NOT AVAILABLE.

MNZ060>063-068>070-270100-
   Twin Cities Metro

CITY           SKY/WX    TMP DP  RH WIND       PRES   REMARKS
TWIN CITIES    CLOUDY    79  49  34 W7        29.82R
6HR MIN TEMP:  78; 6HR MAX TEMP:  81;

ST PAUL        MOSUNNY   77  50  38 W10       29.82R
CRYSTAL        CLOUDY    78  47  33 SW6       29.81R
BLAINE         PTSUNNY   79  52  38 SW7       29.82R
EDEN PRAIRIE   PTSUNNY   79  50  36 CALM      29.81R
6HR MIN TEMP:  77; 6HR MAX TEMP:  82;

SOUTH ST PAUL  CLOUDY    78  48  35 W7        29.82R
LAKE ELMO      FAIR      75  54  46 SW7       29.84R
$$
MNZ001>005-007-008-013>017-022>024-027-028-270100-
   Northwest Minnesota

CITY           SKY/WX    TMP DP  RH WIND       PRES   REMARKS
BEMIDJI        MOSUNNY   69  51  51 NW15      29.72F
HALLOCK        MOSUNNY   66  55  68 W15       29.71R
ROSEAU         SUNNY     70  57  64 W13       29.70F
WARROAD        MOSUNNY   68  57  68 SW8       29.70F
THIEF RVR FALL MOSUNNY   70  54  56 W14       29.73F
CROOKSTON      SUNNY     72  55  56 NW13G20   29.72F
FOSSTON        SUNNY     70  52  52 W13       29.72F
DETROIT LAKES  SUNNY     70  54  56 N5        29.77R
MOORHEAD       SUNNY     73  54  49 NW5       29.73R
PARK RAPIDS    MOSUNNY   72  50  45 NW13      29.76F
MAHNOMEN       FAIR      69  54  58 NW12G20   29.72F
$$
MNZ006-009>011-018-025>026-270100-
   North Central Minnesota

CITY           SKY/WX    TMP DP  RH WIND       PRES   REMARKS
BAUDETTE       SUNNY     71  53  52 SW10      29.71S
FLAG ISLAND    MOSUNNY   66  54  63 SW15      29.68S
INTL FALLS     CLOUDY    72  51  47 W9        29.72R
6HR MIN TEMP:  68; 6HR MAX TEMP:  77;

WASKISH        SUNNY     68  57  68 SW12      29.73F
BIG FORK       SUNNY     73  48  40 W6        29.68F
LONGVILLE      MOSUNNY   72  50  46 W6        29.74F
GRAND RAPIDS   SUNNY     72  51  47 SW8       29.76S
CRANE LAKE     CLOUDY    66  55  68 CALM      29.75S
ORR            PTSUNNY   72  54  53 NW6       29.69F
COOK           SUNNY     73  54  49 SW3       29.68F
$$
MNZ012-019>021-037-270100-
   Northeast Minnesota

CITY           SKY/WX    TMP DP  RH WIND       PRES   REMARKS
DULUTH         MOSUNNY   59  52  77 SE9       29.77R
6HR MIN TEMP:  57; 6HR MAX TEMP:  69;

ELY            SUNNY     73  48  40 W7        29.70F
HIBBING        SUNNY     71  51  49 W6        29.71F
EVELETH        SUNNY     72  54  53 SE6       29.71F
DULUTH HARBOR  FOG       46  45  93 CALM      29.80R VSB 1
TWO HARBORS    SUNNY     59  54  82 SE6       29.76R
GRAND MARAIS     N/A     48  46  93 E5        29.76F
G MARAIS ARPRT SUNNY     63  52  67 CALM      29.78F
$$
MNZ029>031-032-039>041-046>048-054>057-064-270100-
   West Central Minnesota

CITY           SKY/WX    TMP DP  RH WIND       PRES   REMARKS
FERGUS FALLS   MOSUNNY   75  48  38 NW13      29.71R
WHEATON        SUNNY     79  52  38 SW6       29.77R
MORRIS         MOSUNNY   79  52  38 W5        29.77R
ALEXANDRIA     SUNNY     76  47  35 N3        29.80R
ELBOW LAKE     PTSUNNY   75  50  42 NW6       29.76R
WADENA         MOSUNNY   72  50  46 W5        29.77R
GLENWOOD       MOSUNNY   75  46  35 N6        29.81R
APPLETON       SUNNY     79  45  29 SW5       29.79R
ORTONVILLE     SUNNY     79  46  31 W3        29.79R
MADISON        SUNNY     77  46  33 CALM      29.80R
WILLMAR        FAIR      81  46  30 W9        29.81R
$$
MNZ033>034-036-042>043-049>051-058-059-270100-
   Central Minnesota

CITY           SKY/WX    TMP DP  RH WIND       PRES   REMARKS
ST CLOUD       SUNNY     78  47  33 W7        29.80R
6HR MIN TEMP:  74; 6HR MAX TEMP:  80;

SAUK CENTRE    FAIR      75  49  38 CALM      29.81R
PAYNESVILLE    MOSUNNY   78  42  27 S3        29.81R
AITKIN         SUNNY     75  41  29 NW5       29.76R
PINE RIVER     SUNNY     72  52  49 W6        29.81R
BRAINERD       SUNNY     73  46  38 NW9       29.78R
STAPLES        SUNNY     72  48  43 NW9       29.78R
LONG PRAIRIE   FAIR      73  46  38 W7        29.78R
LITTLE FALLS   SUNNY     73  45  35 W5        29.80R
LITCHFIELD     MOSUNNY   79  46  31 CALM      29.81R
BUFFALO        CLOUDY    77  47  34 S5        29.83R
MAPLE LAKE     PTSUNNY   79  53  41 S3        29.81R
HUTCHINSON     SUNNY     78  52  40 CALM      29.82R
$$
MNZ037-044-045-052-053-270100-
   East Central Minnesota

CITY           SKY/WX    TMP DP  RH WIND       PRES   REMARKS
PRINCETON      CLOUDY    79  48  34 W5        29.81R
MORA           SUNNY     73  46  38 W8        29.79R
CAMBRIDGE        N/A     79  55  44 CALM      29.80R
RUSH CITY      CLOUDY    76  49  39 W6        29.80R
MOOSE LAKE     SUNNY     75  46  35 W6        29.74R
HINCKLEY       FAIR      77  50  38 W7        29.78R
CLOQUET        MOSUNNY   61  52  72 SE8       29.77R
MCGREGOR       SUNNY     73  45  35 W8        29.77R
$$
MNZ071>073-080-081-089-090-097-098-270100-
   Southwest Minnesota

CITY           SKY/WX    TMP DP  RH WIND       PRES   REMARKS
MONTEVIDEO     SUNNY     81  48  32 CALM      29.81R
GRANITE FALLS  CLOUDY    80  49  33 SW5       29.81R
CANBY          CLOUDY    78  53  41 CALM      29.82R
MARSHALL       PTSUNNY   78  50  37 SE3       29.82R
REDWOOD FALLS  PTSUNNY   79  48  33 SW9       29.80R
OLIVIA         MOSUNNY   70  41  35 W6        29.80R
PIPESTONE      CLOUDY    73  46  38 SE6       29.85R
WINDOM         CLOUDY    73  52  46 CALM      29.86R
WORTHINGTON    CLOUDY    72  58  61 E5        29.86R
JACKSON        CLOUDY    73  52  46 S3        29.86S
TRACY          CLOUDY    76  50  40 S7        29.84R
SLAYTON        CLOUDY    74  48  39 SE9       29.86R
$$
MNZ065>067-074>077-082>085-091>093-270100-
   South Central Minnesota

CITY           SKY/WX    TMP DP  RH WIND       PRES   REMARKS
MANKATO        CLOUDY    77  48  36 S7        29.84R
NEW ULM        CLOUDY    73  54  49 S9        29.83R
ST JAMES       CLOUDY    72  52  49 CALM      29.85R
FAIRMONT       CLOUDY    73  52  46 S5        29.85R
FARIBAULT      CLOUDY    75  54  46 SW3       29.84R
OWATONNA       CLOUDY    75  54  46 SW3       29.86R
WASECA         CLOUDY    73  54  49 W3        29.86R
ALBERT LEA     CLOUDY    75  54  46 CALM      29.85R
$$
MNZ078>079-086>088-094>096-270100-
   Southeast Minnesota

CITY           SKY/WX    TMP DP  RH WIND       PRES   REMARKS
ROCHESTER      CLOUDY    73  62  68 W5        29.86R
6HR MIN TEMP:  73; 6HR MAX TEMP:  78;

RED WING       CLOUDY    79  48  34 W6        29.82R
STANTON        CLOUDY    76  55  48 SW6       29.82R
DODGE CENTER   CLOUDY    73  54  49 W5        29.86R
WINONA         CLOUDY    79  54  41 W3        29.83R
AUSTIN         CLOUDY    75  54  46 CALM      29.85R
PRESTON        CLOUDY    73  57  56 W3        29.87R
$$
ABBREVIATIONS USED IN REMARKS
   TC - TEMPERATURES IN CELSIUS
  WCI - WIND CHILL INDEX
   HX - HEAT INDEX
  VSB - VISIBILITY
$$




USA.gov is the U.S. government's official web portal to all federal, state and local government web resources and services.